Location: *
(49.0044°N, 9.5056°E)
Time: 22:33:02
(UTC+00:00)

CZ-2C R/B - Pass Details

Date: 22 September 2019
Orbit: 785 x 870 km, 98.3° (Epoch: 17 October)

Event Time Altitude Azimuth Distance (km) Brightness Sun altitude
Rises 19:15:36 0° 24° (NNE) 3,446 5.9 -19.1°
Reaches altitude 10° 19:18:28 10° 38° (NE) 2,513 5.0 -19.6°
Enters shadow 19:21:05 20° 63° (ENE) 1,885 4.2 -19.9°
